Dewpoint
56 56 56 56 56 56 56 56 56 56 56 56 57 57 57 57 57 57 57 57 57 56 56 56 56 56 56 56 56 57 57 54 53 50 48 49 53 71 70 70 65 65 69 46 32 32 35 43 45 48 51 55 55 53 69 68 67 69 63 60 58 60 58 62 61 63 62 60 61 65 65 64 61 64 64 67 59 58 53 51 50 51 52 54 57 58 59 59
55 56 56 56 56 56 56 56 56 56 56 56 56 56 56 57 57 57 57 56 56 56 56 56 56 56 56 56 56 57 56 54 52 51 48 51 65 65 70 70 69 71 66 32 28 29 35 43 46 48 51 51 53 58 61 66 66 65 62 61 57 61 61 66 65 65 63 60 63 65 66 65 61 66 62 59 56 56 50 47 49 52 53 55 56 57 58 58
55 55 56 56 56 56 56 56 56 56 56 56 57 56 56 56 56 56 56 56 56 56 56 56 56 56 56 56 57 58 55 53 51 49 49 65 64 65 68 69 68 71 41 26 27 29 35 45 49 50 50 49 56 57 62 68 64 66 60 59 61 63 63 65 66 65 68 64 64 65 65 67 62 66 61 57 55 55 49 49 51 51 52 54 56 57 57 58
56 56 56 56 55 55 56 56 56 56 56 56 56 56 56 56 56 56 56 56 56 56 56 56 56 56 56 57 57 56 54 52 48 46 48 71 67 65 67 67 70 70 37 26 27 29 32 40 46 43 41 48 55 58 57 67 62 63 63 60 62 64 62 64 66 67 67 65 63 64 65 64 63 63 60 58 55 57 53 51 51 51 52 54 55 56 57 58
56 55 55 55 56 56 56 56 56 56 56 56 56 56 56 56 56 56 56 56 56 56 55 56 55 56 56 57 58 56 52 48 46 50 58 68 68 66 66 68 71 49 34 25 26 28 32 39 44 42 39 45 59 58 58 63 64 67 64 63 63 65 63 66 67 68 67 66 64 64 63 63 65 64 63 60 54 51 52 51 52 52 53 54 55 56 57 58
56 55 55 56 56 56 56 56 56 56 56 56 56 56 56 56 56 56 56 55 55 55 55 55 56 56 57 58 56 54 48 24 33 45 64 68 66 67 68 69 71 44 25 24 27 31 36 44 44 39 38 45 60 61 59 63 63 62 64 64 66 66 64 66 66 68 67 65 65 63 64 64 63 63 62 63 57 57 55 51 52 53 54 54 55 56 56 57
56 56 56 56 56 56 56 56 55 55 55 56 56 56 56 56 55 55 55 55 55 55 56 56 56 56 57 58 56 53 47 42 37 49 71 71 70 69 70 68 62 43 33 28 29 33 41 45 41 37 37 49 56 60 62 62 61 62 63 64 64 66 66 67 65 68 66 65 64 66 66 64 63 58 62 61 60 59 55 52 52 53 54 54 54 55 55 56
56 56 56 56 56 56 56 55 56 56 55 55 55 55 55 55 55 55 55 55 55 56 55 56 56 57 57 55 51 49 48 42 42 56 71 71 66 62 56 49 40 29 33 35 34 35 42 45 37 35 38 56 59 53 58 58 62 62 63 64 64 66 66 67 66 67 68 67 67 65 63 63 63 61 64 59 58 53 52 52 53 53 53 53 54 54 55 56
56 56 56 56 56 56 56 56 56 56 56 56 56 56 56 56 55 55 55 55 55 55 55 56 57 57 58 55 49 44 37 40 49 56 66 61 51 52 33 25 28 27 31 36 39 39 42 40 36 34 55 49 51 52 54 58 59 63 63 64 64 65 65 68 67 67 68 68 66 62 61 63 65 63 62 60 56 55 52 52 52 52 53 53 53 54 54 55
56 56 56 56 56 56 56 56 56 56 56 56 55 55 55 55 55 55 55 55 55 55 55 56 57 57 55 52 47 41 35 46 50 54 54 48 40 37 28 17 25 27 29 34 38 41 42 41 34 33 49 53 53 54 50 56 61 63 64 64 64 65 66 67 65 65 66 65 66 62 61 61 66 63 55 63 59 51 52 52 52 52 52 53 53 53 53 53
56 56 56 56 56 56 56 56 56 56 55 56 56 56 55 55 54 55 55 55 55 56 56 57 57 57 53 51 44 40 34 38 49 47 42 37 30 23 20 18 25 27 29 31 36 40 41 39 36 31 35 50 52 57 58 61 63 64 63 64 64 64 66 66 67 66 65 64 67 65 62 62 65 63 56 58 58 51 52 51 51 51 51 52 52 52 53 53
56 56 56 56 56 56 56 56 56 56 56 56 56 55 55 55 55 55 55 55 56 56 57 57 57 55 54 52 47 37 36 33 32 38 35 31 24 18 16 16 24 26 28 31 36 38 36 34 32 28 37 49 60 61 60 62 63 63 63 61 64 65 64 65 66 67 65 65 66 66 62 58 62 57 60 57 60 53 53 50 50 50 50 50 51 52 54 53
56 56 56 56 56 56 56 56 56 56 56 55 55 54 55 55 55 55 55 55 56 56 57 57 58 56 54 48 46 44 42 39 36 35 31 29 24 19 13 14 21 25 27 32 36 34 29 28 28 26 33 45 54 54 62 63 64 65 63 61 61 60 61 64 68 67 64 66 67 66 54 57 58 58 62 61 56 52 52 49 49 50 49 50 51 52 53 54
56 56 56 56 56 56 56 56 56 55 55 55 55 55 55 55 55 56 56 56 57 57 57 58 56 55 53 49 46 37 33 36 35 35 31 28 26 20 14 14 20 23 26 30 33 34 31 27 27 28 40 46 55 63 61 61 63 61 64 62 58 56 58 65 65 66 63 66 67 64 54 57 62 60 64 64 54 51 48 47 48 49 49 50 50 52 53 53
56 56 56 56 56 56 56 55 55 55 55 54 55 55 55 55 56 57 57 57 57 57 58 59 56 52 50 47 49 42 67 38 30 31 29 26 27 24 22 22 27 29 28 31 33 34 32 36 33 36 38 46 60 60 59 58 59 61 57 57 58 56 59 62 66 65 62 64 67 65 54 56 59 58 63 65 57 52 48 47 47 48 49 49 50 52 52 52
56 56 56 56 56 56 55 55 55 55 54 54 54 54 55 56 57 57 58 57 58 59 57 55 56 51 47 45 32 40 32 22 27 31 27 27 25 25 27 29 29 28 29 32 33 33 28 32 30 34 39 43 47 53 55 58 57 57 57 55 56 58 59 60 63 65 66 66 66 63 57 59 60 61 62 66 60 56 49 47 47 49 49 49 51 51 52 51
56 56 56 56 55 55 55 55 55 55 55 54 54 55 55 56 57 58 59 59 57 57 54 50 42 52 48 38 42 27 28 30 29 29 26 25 22 21 21 23 24 29 34 32 31 30 30 31 35 34 35 37 43 45 49 55 51 56 54 54 56 55 58 58 63 65 64 64 64 63 61 58 59 60 60 64 63 59 52 48 49 49 49 49 51 51 51 51
56 56 56 56 55 55 55 55 55 55 55 54 54 54 54 56 58 56 56 59 55 54 54 51 49 47 43 45 36 28 25 30 31 29 26 24 21 18 24 25 27 27 30 27 27 24 25 27 28 26 33 37 42 44 42 45 50 51 53 52 53 57 57 56 59 62 63 63 63 62 62 60 59 60 59 62 64 61 56 49 50 49 50 50 51 51 51 51
56 56 56 56 56 55 55 55 55 55 54 54 55 55 56 57 56 52 49 49 48 52 50 50 48 41 19 29 35 26 33 31 36 28 25 27 24 26 21 25 24 25 26 24 23 22 21 20 24 26 25 36 41 43 43 47 50 50 53 52 53 55 54 58 60 62 62 60 61 62 60 61 61 60 58 59 62 60 57 53 52 52 51 51 51 51 51 52
56 56 56 56 56 55 55 55 55 54 54 53 50 52 54 54 52 47 52 49 46 42 39 31 45 37 26 22 32 34 36 35 31 27 29 27 32 27 20 19 21 23 22 20 21 21 16 15 17 19 23 32 40 42 41 49 49 49 51 54 52 53 56 59 60 62 64 60 59 62 62 62 61 62 58 58 60 59 58 55 54 53 52 50 50 50 51 52
56 56 56 55 55 55 55 55 54 54 54 51 50 47 39 37 21 22 25 30 44 46 42 36 33 22 17 23 31 29 30 27 30 29 29 30 27 19 16 16 16 17 18 19 16 17 14 14 12 16 22 28 37 41 40 46 43 48 51 51 52 55 55 58 59 62 65 60 59 61 60 60 62 64 61 61 59 58 57 56 54 54 53 51 51 51 52 53
56 56 55 55 55 55 55 55 54 54 53 52 52 43 38 38 24 26 31 29 33 37 42 23 9 8 19 23 28 25 24 23 24 28 32 28 25 19 13 12 13 13 16 16 20 14 13 10 9 11 17 25 30 34 40 40 43 48 48 50 51 56 59 61 62 62 62 60 59 60 59 60 62 64 64 64 63 63 62 64 58 57 52 53 53 51 53 53
56 55 56 55 55 54 54 54 53 53 50 52 47 44 42 34 29 36 34 34 33 35 30 9 8 6 18 26 28 26 22 24 23 30 29 30 25 23 13 12 12 10 11 13 14 13 14 8 8 9 10 15 26 30 36 37 38 42 49 47 51 56 55 55 60 62 62 61 59 59 59 60 62 63 63 64 64 63 63 66 64 63 60 54 54 52 52 54
55 56 55 55 55 54 54 54 52 51 50 45 43 41 39 38 31 34 34 32 32 32 14 9 11 8 16 20 22 17 19 25 26 28 30 25 23 23 21 13 12 8 5 9 12 13 11 9 8 7 6 9 16 24 33 34 33 34 37 43 53 54 52 55 58 60 61 61 61 60 58 58 60 59 61 64 65 66 66 65 62 62 65 64 54 56 54 55
55 55 55 55 55 54 53 52 47 46 47 46 43 41 40 39 44 37 35 36 34 31 9 15 15 17 18 30 20 16 17 22 26 30 28 24 24 22 21 20 16 9 6 4 8 10 11 11 8 6 6 6 10 18 32 33 28 28 28 27 53 52 53 58 58 58 56 55 61 56 50 52 58 59 60 62 64 64 66 63 63 63 63 63 57 55 56 58
55 55 55 55 55 54 52 49 47 43 39 37 36 42 40 40 40 46 37 36 23 13 10 6 14 13 20 13 27 20 22 22 27 27 27 23 30 21 25 19 19 15 8 7 2 9 7 11 12 6 5 5 6 24 32 31 27 28 27 29 49 52 56 57 55 53 51 49 57 58 50 49 57 57 60 61 62 62 65 64 62 61 62 62 59 57 56 56
55 55 54 54 54 53 45 32 49 40 38 33 34 33 34 40 52 38 38 34 26 18 12 18 18 21 22 20 21 25 22 33 25 25 25 27 20 22 17 15 17 17 16 16 15 2 5 6 7 10 5 4 8 31 33 32 29 26 25 45 52 55 55 56 55 51 53 60 60 58 58 51 51 56 61 61 61 61 63 63 62 62 61 61 60 58 57 58
55 54 54 54 54 53 50 51 45 38 38 37 37 34 34 53 46 44 39 31 12 14 13 16 17 27 22 18 18 22 26 31 23 25 26 22 23 19 17 16 16 14 15 15 10 10 6 7 8 11 13 6 29 33 33 32 30 28 26 38 50 52 54 53 50 49 53 53 52 57 54 52 51 58 62 63 59 60 60 62 62 62 61 61 58 57 57 59
54 54 54 53 53 52 53 50 48 42 41 40 41 37 35 44 36 37 37 28 22 17 29 15 19 18 18 19 16 21 22 27 23 23 20 23 19 24 18 18 19 22 18 12 6 9 9 7 12 13 14 16 28 32 31 31 28 28 28 31 48 50 52 53 49 50 50 49 49 53 53 49 51 57 58 61 60 59 60 62 63 62 61 61 58 55 57 59
54 53 53 52 51 52 52 52 49 46 44 45 44 40 36 37 39 40 31 18 19 15 16 13 19 14 17 14 18 20 21 25 27 24 20 20 19 20 20 22 21 22 18 15 11 14 12 24 35 21 16 30 31 30 31 30 29 26 27 24 24 38 46 50 54 47 46 42 47 53 54 50 47 54 56 56 56 57 61 63 64 63 62 61 58 55 56 59
53 52 52 52 49 50 45 42 44 49 49 48 44 40 39 42 37 33 23 14 9 15 18 16 12 15 16 13 18 17 17 23 23 25 19 18 17 18 19 19 22 21 20 16 13 14 11 19 21 26 27 25 25 24 29 27 28 27 25 25 25 27 31 31 40 44 38 42 50 53 53 50 45 52 57 58 58 58 57 61 63 64 63 61 60 57 55 58
51 51 52 51 51 52 40 29 32 36 37 41 41 39 37 33 35 31 26 14 11 13 21 15 15 17 16 18 17 9 17 21 21 21 19 14 20 15 17 20 24 29 17 18 15 17 13 13 24 27 35 25 25 22 21 21 23 23 26 32 29 30 30 27 29 29 35 42 49 53 53 50 47 52 55 57 57 57 57 59 62 64 64 62 61 60 58 58
51 51 51 51 52 50 48 42 42 42 43 42 42 41 37 37 31 22 17 7 15 10 14 12 12 12 14 17 17 16 19 15 10 16 22 14 17 15 17 20 19 15 23 23 18 13 14 21 22 24 25 32 28 21 18 14 19 22 25 31 30 28 27 26 31 35 41 45 50 51 53 49 53 53 56 56 57 57 57 58 61 64 65 61 61 60 61 59
50 51 51 52 51 50 47 50 46 48 44 43 44 39 36 33 31 24 8 9 6 5 5 8 10 8 15 13 15 16 12 18 14 14 22 21 16 16 16 17 19 17 17 26 14 12 14 16 18 22 21 24 24 22 19 21 20 21 23 23 31 29 34 31 30 31 33 42 48 53 48 46 44 52 54 54 57 58 58 58 61 64 65 61 61 62 61 61
50 51 51 51 53 51 50 49 47 47 44 42 39 38 33 31 20 9 9 7 8 5 7 5 2 4 11 9 15 14 15 19 15 19 20 21 12 14 14 15 17 22 20 20 24 22 10 14 17 19 21 22 21 21 21 19 18 18 24 24 26 24 29 24 36 34 37 45 45 47 47 49 50 55 57 58 56 58 59 58 60 62 66 66 61 61 61 60
51 56 51 50 47 42 48 50 49 47 45 42 36 37 30 22 11 8 10 10 8 9 9 13 7 6 9 10 19 8 20 17 13 15 19 19 19 18 19 18 16 20 19 16 29 23 19 22 13 19 20 19 18 19 19 22 20 16 22 20 21 23 21 30 36 33 35 39 40 48 49 51 52 55 54 56 57 58 59 59 59 61 63 66 64 61 61 61
50 46 42 42 43 44 44 47 51 49 45 37 35 32 13 11 9 5 15 6 6 9 10 14 20 11 9 11 11 7 14 15 13 14 22 18 19 19 18 18 21 20 17 19 21 20 22 18 21 19 16 18 18 17 17 18 19 16 14 14 21 21 21 29 26 35 32 29 41 45 45 46 47 47 53 54 53 56 58 59 58 60 61 63 66 65 62 62
52 47 42 38 36 40 41 40 38 37 34 37 34 41 25 7 8 1 1 3 7 9 11 16 19 11 11 11 7 7 11 11 16 12 17 22 26 20 19 17 19 21 17 17 20 21 19 19 17 19 16 15 17 16 13 13 15 12 11 8 11 23 17 29 28 24 25 31 43 49 45 48 49 50 51 53 52 55 57 60 59 59 59 60 61 63 65 64
54 49 35 34 35 37 33 54 43 45 37 33 31 33 9 5 7 5 4 5 7 5 13 10 11 11 13 14 11 8 6 9 9 14 20 18 21 20 19 21 18 21 18 17 18 22 21 19 18 18 15 14 16 14 22 12 11 11 10 6 15 17 20 24 21 30 29 29 38 44 43 43 47 48 50 52 52 53 56 58 58 58 58 58 58 58 61 64
49 42 31 34 34 32 48 39 25 38 35 28 29 22 9 5 6 6 5 5 5 9 7 6 8 12 14 13 10 12 11 9 12 13 18 18 17 20 18 17 15 17 18 18 17 19 20 26 25 21 18 14 19 20 15 17 13 9 7 7 9 25 16 18 27 21 27 28 29 39 40 43 51 60 51 52 52 53 55 57 58 58 58 58 58 58 60 62
41 40 40 42 37 48 50 28 30 27 28 26 26 14 1 4 3 4 5 13 5 9 5 8 9 17 15 14 12 11 13 12 15 17 15 18 16 25 17 16 16 15 17 18 20 25 29 25 24 19 18 17 16 16 15 14 13 7 5 8 9 12 19 18 24 19 19 22 24 30 40 50 55 64 60 58 61 58 56 56 57 58 58 59 59 60 62 63
46 30 31 36 35 34 34 23 22 30 25 24 12 16 10 26 8 8 11 6 6 12 12 11 14 15 17 15 14 14 18 16 16 18 18 17 16 16 16 17 15 17 16 22 22 25 33 35 30 20 19 20 22 21 17 14 13 9 4 5 11 12 15 23 16 27 19 20 23 39 44 48 58 60 59 60 61 61 62 61 59 58 59 59 60 62 64 64
40 32 35 35 37 33 27 29 32 32 22 12 11 7 7 4 2 7 10 7 9 11 14 14 9 14 18 19 16 15 15 21 19 18 17 17 16 16 15 16 15 17 21 23 23 22 44 31 28 28 28 25 23 23 21 14 13 10 6 4 6 7 9 13 18 22 21 23 21 37 45 48 58 61 62 62 63 62 63 64 63 63 62 61 61 62 64 64
39 37 36 38 38 33 30 26 26 27 18 16 17 2 7 9 7 7 7 9 3 6 14 19 16 23 18 16 16 17 22 27 16 19 26 22 22 17 20 18 14 18 20 22 30 22 27 32 31 27 27 27 25 28 25 12 14 13 8 10 7 5 6 6 8 29 18 28 22 40 40 44 58 60 60 61 61 62 62 63 63 63 63 64 64 65 64 64
45 40 38 31 28 33 24 24 20 17 15 16 15 11 7 13 20 13 10 11 14 9 12 14 14 16 16 13 17 16 15 16 29 15 17 16 21 24 18 18 16 15 20 31 46 22 32 37 35 30 29 27 29 29 29 27 27 22 13 14 13 9 20 19 7 23 13 35 36 40 47 55 57 58 59 59 60 62 63 62 64 65 65 65 65 65 65 66
41 35 33 35 27 28 24 21 13 17 20 22 30 19 2 11 4 4 9 8 7 4 15 9 11 11 10 13 15 14 16 17 20 32 26 21 21 18 15 17 14 14 38 38 44 29 37 35 36 37 31 29 31 35 34 35 31 21 13 19 12 13 15 18 30 22 18 38 43 48 53 54 54 55 58 60 59 61 61 62 63 64 64 64 64 65 66 67
45 36 33 39 37 22 17 16 12 18 23 27 32 20 12 12 14 9 13 14 6 9 14 15 8 11 20 18 21 18 25 23 21 28 26 18 20 19 18 17 15 27 48 42 45 26 35 30 27 36 35 31 25 26 24 29 22 21 21 20 19 17 32 39 37 38 42 38 37 50 54 52 53 55 57 57 58 60 62 62 62 63 64 64 66 67 67 66
37 43 37 40 35 35 30 33 19 16 11 15 26 18 12 6 9 14 10 8 12 10 11 24 19 13 17 21 23 30 29 32 32 28 22 26 22 19 18 16 20 40 47 26 25 31 34 29 22 21 19 20 20 22 22 23 22 22 20 20 24 37 41 40 42 44 47 38 37 48 52 52 54 55 56 58 58 59 62 62 63 64 64 65 65 65 66 66
41 43 43 43 39 38 27 22 20 14 14 21 32 15 5 7 12 11 14 7 17 23 17 35 20 16 19 23 34 41 44 33 34 38 41 27 24 25 25 22 18 19 18 24 27 38 34 32 28 22 20 20 21 22 22 21 19 19 20 23 30 32 42 42 43 44 44 48 52 52 51 51 53 55 57 57 59 60 62 63 63 63 63 64 64 65 66 67
48 45 48 49 45 40 36 28 25 17 29 40 36 25 13 15 11 14 11 9 16 13 12 14 13 15 19 24 35 38 38 37 39 42 43 36 25 36 34 36 25 25 19 18 26 36 29 36 31 22 27 23 23 24 23 23 20 19 25 32 32 36 42 44 44 45 47 47 50 53 52 52 55 59 59 60 61 60 62 62 62 63 63 63 64 65 65 65
53 52 55 52 47 43 40 32 33 35 33 36 31 19 14 10 10 14 14 9 8 28 16 14 17 22 15 25 31 26 26 35 37 29 27 28 28 30 31 39 24 25 23 25 27 34 29 33 26 31 29 27 23 21 21 23 29 31 31 29 34 36 41 43 44 45 46 48 49 49 50 51 54 58 60 61 60 61 60 61 62 63 64 65 64 64 64 65
56 54 55 55 49 48 40 30 26 29 29 33 23 14 22 17 19 20 24 15 12 24 12 11 14 18 31 35 27 27 21 19 18 20 22 20 16 19 18 21 22 32 32 28 29 28 31 32 28 31 27 28 26 24 23 25 27 30 30 30 34 43 44 44 45 46 47 50 50 50 50 55 58 59 58 58 59 60 60 61 62 63 64 64 64 64 65 65